Location: Newark
(47.5833°N, 8.1500°E)
Time: 12:35:14
(UTC+00:00)

Transit 2A - Pass Details

Date: 03 November 2020
Orbit: 595 x 964 km, 66.7° (Epoch: 27 November)

Event Time Altitude Azimuth Distance (km) Brightness Sun altitude
Rises 08:37:24 0° 319° (NW) 3,411 8.7 18.4°
Reaches altitude 10° 08:40:12 10° 310° (NW) 2,408 8.1 18.7°
Maximum altitude 08:44:58 31° 250° (WSW) 1,321 7.3 19.2°
Drops below altitude 10° 08:49:17 10° 189° (S) 2,177 9.1 19.6°
Sets 08:51:43 0° 179° (S) 3,033 10.0 19.9°
